Improved parabolic orbital elements by K. Muraoka,
from 20 observations 2000 May 4 to 9, m.e. = +/- 0".44.
T = 2000 May 12.776 TT
Peri. = 147.630
Node = 28.225 (2000.0)
Incl. = 99.031
q = 2.55276 AU
e = 1.0
星図
光度変化
m1 = 14.0 + 5 logΔ + 10.0 log r
軌道要素は村岡健治氏の計算によるものです。
星図は StellaNavigator Ver.2.0 for Windows
(アストロアーツ
編著 / アスキー出版局刊) で作成したものです。
光度グラフはComet for
Windowsで作成したものです。
Copyright(C) Seiichi Yoshida (comet@aerith.net). All rights reserved.